^^
Station Historical Data
 
Daily Summary for December 17, 2017 Units:  English    Metric   Both
« Previous Day
Next Day »
Daily Weekly Monthly Yearly Custom
  Current: High: Low: Average:
Temperature: 40.3 °F 44.6 °F 33.6 °F 39.2 °F
Dew Point: 32.4 °F 33.3 °F 19.8 °F 25.7 °F
Humidity: 73% 74% 50% 59%
Wind Speed: 3.5mph 9.2mph 0mph 1.9mph
Wind Gust: 3.5mph 9.2mph - -
WindSSW - - SSW
Pressure: 30.1 in 30.3 in 30.1 in -
Precipitation: 0.01 in      
Historical Graphs
 
 
Tabular Data for December 17, 2017
Time Temperature Dew Point Pressure Wind Wind Speed Wind Gust Humidity Rainfall Rate (Hourly) Conditions
00:00 36.1 °F 20.1 °F 30.2 in Calm     52% 0 in CLR
00:03 36.1 °F 20.1 °F 30.2 in Calm     52% 0 in CLR
00:07 36.1 °F 20.1 °F 30.2 in Calm     52% 0 in CLR
00:08 36.1 °F 20.1 °F 30.2 in Calm     52% 0 in CLR
00:13 36 °F 19.9 °F 30.2 in Calm     52% 0 in CLR
00:16 36 °F 19.9 °F 30.2 in Calm     52% 0 in CLR
00:19 35.8 °F 19.9 °F 30.2 in Calm     52% 0 in CLR
00:24 35.6 °F 19.8 °F 30.2 in Calm     52% 0 in CLR
00:29 35.6 °F 19.8 °F 30.2 in Calm     52% 0 in CLR
00:31 35.6 °F 19.8 °F 30.2 in Calm     52% 0 in CLR
00:35 35.4 °F 20.5 °F 30.2 in Calm     54% 0 in CLR
00:37 35.4 °F 20.5 °F 30.2 in Calm     54% 0 in CLR
00:42 35.4 °F 20.5 °F 30.2 in Calm     54% 0 in CLR
00:43 35.4 °F 20.5 °F 30.2 in Calm     54% 0 in CLR
00:48 35.4 °F 20.5 °F 30.2 in Calm     54% 0 in CLR
00:51 35.4 °F 20.5 °F 30.2 in Calm     54% 0 in CLR
00:54 35.4 °F 20.5 °F 30.2 in Calm     54% 0 in CLR
00:59 35.4 °F 20.5 °F 30.2 in Calm     54% 0 in CLR
01:03 35.4 °F 20.5 °F 30.2 in Calm     54% 0 in CLR
01:07 35.4 °F 20.5 °F 30.2 in Calm     54% 0 in CLR
01:09 35.2 °F 20.1 °F 30.2 in Calm     54% 0 in CLR
01:14 35.2 °F 20.1 °F 30.2 in Calm     54% 0 in CLR
01:17 35.1 °F 20.1 °F 30.2 in Calm     54% 0 in CLR
01:19 35.1 °F 20.1 °F 30.2 in Calm     54% 0 in CLR
01:23 34.9 °F 19.9 °F 30.2 in Calm     54% 0 in CLR
01:27 35.1 °F 20.5 °F 30.2 in Calm     55% 0 in CLR
01:28 35.1 °F 20.5 °F 30.2 in Calm     55% 0 in CLR
01:33 35.2 °F 20.7 °F 30.2 in Calm     55% 0 in CLR
01:35 35.2 °F 20.7 °F 30.2 in Calm     55% 0 in CLR
01:40 35.4 °F 20.8 °F 30.2 in Calm     55% 0 in CLR
01:41 35.4 °F 20.8 °F 30.2 in Calm     55% 0 in CLR
01:46 35.4 °F 20.5 °F 30.2 in Calm     54% 0 in CLR
01:51 35.6 °F 20.1 °F 30.2 in Calm     53% 0 in CLR
01:54 35.8 °F 20.3 °F 30.2 in Calm     53% 0 in CLR
01:59 35.8 °F 20.3 °F 30.2 in Calm     53% 0 in CLR
02:00 35.8 °F 20.3 °F 30.2 in Calm     53% 0 in CLR
02:02 35.8 °F 20.3 °F 30.2 in Calm     53% 0 in CLR
02:07 36 °F 20.5 °F 30.2 in Calm     53% 0 in CLR
02:12 35.8 °F 20.3 °F 30.2 in Calm     53% 0 in CLR
02:14 35.6 °F 20.1 °F 30.2 in Calm     53% 0 in CLR
02:15 35.6 °F 20.1 °F 30.2 in Calm     53% 0 in CLR
02:19 35.6 °F 20.1 °F 30.2 in Calm     53% 0 in CLR
02:21 35.6 °F 20.1 °F 30.2 in Calm     53% 0 in CLR
02:26 35.6 °F 20.1 °F 30.2 in Calm     53% 0 in CLR
02:27 35.6 °F 20.1 °F 30.2 in Calm     53% 0 in CLR
02:32 35.6 °F 20.1 °F 30.2 in Calm     53% 0 in CLR
02:36 35.6 °F 20.1 °F 30.2 in Calm     53% 0 in CLR
02:38 35.6 °F 20.1 °F 30.2 in Calm     53% 0 in CLR
02:41 35.6 °F 20.1 °F 30.2 in Calm     53% 0 in CLR
02:43 35.6 °F 20.1 °F 30.2 in Calm     53% 0 in CLR
02:48 35.4 °F 20.5 °F 30.2 in Calm     54% 0 in CLR
02:50 35.4 °F 20.5 °F 30.2 in Calm     54% 0 in CLR
02:53 35.2 °F 20.1 °F 30.2 in Calm     54% 0 in CLR
02:58 35.1 °F 20.1 °F 30.2 in Calm     54% 0 in CLR
02:59 35.1 °F 20.1 °F 30.2 in Calm     54% 0 in CLR
03:04 35.1 °F 20.1 °F 30.2 in Calm     54% 0 in CLR
03:05 35.1 °F 20.1 °F 30.2 in Calm     54% 0 in CLR
03:10 34.9 °F 20.3 °F 30.2 in Calm     55% 0 in CLR
03:11 35.1 °F 20.5 °F 30.2 in Calm     55% 0 in CLR
03:16 35.1 °F 20.5 °F 30.2 in Calm     55% 0 in CLR
03:17 34.9 °F 20.3 °F 30.2 in Calm     55% 0 in CLR
03:22 34.9 °F 20.3 °F 30.2 in Calm     55% 0 in CLR
03:27 35.1 °F 20.5 °F 30.2 in Calm     55% 0 in CLR
03:32 35.2 °F 20.7 °F 30.2 in Calm     55% 0 in CLR
03:33 35.2 °F 20.7 °F 30.2 in Calm     55% 0 in CLR
03:38 35.6 °F 20.7 °F 30.2 in Calm     54% 0 in CLR
03:39 35.6 °F 20.7 °F 30.2 in Calm     54% 0 in CLR
03:41 35.8 °F 20.7 °F 30.2 in Calm     54% 0 in CLR
03:46 36 °F 20.5 °F 30.2 in Calm     53% 0 in CLR
03:48 36 °F 20.5 °F 30.2 in Calm     53% 0 in CLR
03:52 35.2 °F 20.1 °F 30.2 in Calm     54% 0 in CLR
03:56 34.9 °F 19.9 °F 30.2 in Calm     54% 0 in CLR
03:58 34.9 °F 20.3 °F 30.2 in Calm     55% 0 in CLR
04:03 34.5 °F 19.9 °F 30.2 in Calm     55% 0 in CLR
04:04 34.5 °F 19.9 °F 30.2 in Calm     55% 0 in CLR
04:05 34.5 °F 19.9 °F 30.2 in Calm     55% 0 in CLR
04:10 34.2 °F 20.1 °F 30.2 in Calm     56% 0 in CLR
04:11 34.2 °F 20.1 °F 30.2 in Calm     56% 0 in CLR
04:16 34.2 °F 20.1 °F 30.2 in Calm     56% 0 in CLR
04:17 34.2 °F 20.1 °F 30.2 in Calm     56% 0 in CLR
04:22 34.7 °F 21 °F 30.2 in Calm     57% 0 in CLR
04:24 34.7 °F 21 °F 30.2 in Calm     57% 0 in CLR
04:28 35.1 °F 21.4 °F 30.2 in Calm     57% 0 in CLR
04:33 35.4 °F 21.4 °F 30.2 in Calm     56% 0 in CLR
04:38 35.1 °F 20.8 °F 30.2 in Calm     56% 0 in CLR
04:39 34.9 °F 20.8 °F 30.2 in Calm     56% 0 in CLR
04:44 34.7 °F 20.7 °F 30.2 in Calm     56% 0 in CLR
04:46 34.7 °F 21 °F 30.2 in Calm     57% 0 in CLR
04:50 34.9 °F 21.2 °F 30.2 in Calm     57% 0 in CLR
04:55 35.1 °F 21.4 °F 30.2 in Calm     57% 0 in CLR
04:59 35.1 °F 20.8 °F 30.2 in Calm     56% 0 in CLR
05:00 35.1 °F 20.8 °F 30.2 in Calm     56% 0 in CLR
05:05 35.1 °F 20.8 °F 30.2 in ENE 3.5 mph 3.5 mph 56% 0 in CLR
05:06 35.1 °F 20.8 °F 30.2 in ENE 3.5 mph 3.5 mph 56% 0 in CLR
05:11 35.1 °F 20.8 °F 30.2 in ENE 3.5 mph 3.5 mph 56% 0 in CLR
05:14 35.1 °F 20.8 °F 30.2 in ENE 3.5 mph 3.5 mph 56% 0 in CLR
05:19 35.2 °F 21 °F 30.2 in ENE 3.5 mph 3.5 mph 56% 0 in CLR
05:24 35.4 °F 21.4 °F 30.2 in Calm     56% 0 in CLR
05:25 35.4 °F 21.4 °F 30.2 in Calm     56% 0 in CLR
05:30 35.6 °F 21 °F 30.2 in Calm     55% 0 in CLR
05:31 35.6 °F 20.7 °F 30.2 in Calm     54% 0 in CLR
05:35 35.2 °F 21 °F 30.2 in Calm     56% 0 in CLR
05:40 35.1 °F 20.8 °F 30.2 in Calm     56% 0 in CLR
05:41 35.1 °F 20.8 °F 30.2 in Calm     56% 0 in CLR
05:46 34.7 °F 21 °F 30.2 in Calm     57% 0 in CLR
05:50 34.5 °F 21.2 °F 30.2 in Calm     58% 0 in CLR
05:52 34.7 °F 21.4 °F 30.2 in Calm     58% 0 in CLR
05:57 34.7 °F 21.4 °F 30.2 in Calm     58% 0 in CLR
05:59 34.9 °F 21.6 °F 30.2 in Calm     58% 0 in CLR
06:00 34.9 °F 21.6 °F 30.2 in Calm     58% 0 in CLR
06:05 34.9 °F 21.6 °F 30.2 in Calm     58% 0 in CLR
06:06 35.1 °F 21.4 °F 30.2 in Calm     57% 0 in CLR
06:11 35.1 °F 21.4 °F 30.2 in Calm     57% 0 in CLR
06:12 35.2 °F 21.6 °F 30.2 in Calm     57% 0 in CLR
06:17 35.2 °F 21.6 °F 30.2 in Calm     57% 0 in CLR
06:18 35.2 °F 21.6 °F 30.2 in Calm     57% 0 in CLR
06:22 35.1 °F 21.7 °F 30.2 in Calm     58% 0 in CLR
06:23 35.1 °F 21.7 °F 30.2 in Calm     58% 0 in CLR
06:28 35.1 °F 21.7 °F 30.2 in Calm     58% 0 in CLR
06:31 34.7 °F 21.4 °F 30.2 in Calm     58% 0 in CLR
06:36 34.5 °F 21.2 °F 30.2 in Calm     58% 0 in CLR
06:37 34.5 °F 21.7 °F 30.2 in Calm     59% 0 in CLR
06:42 34.2 °F 21.4 °F 30.2 in Calm     59% 0 in CLR
06:44 34.2 °F 21.4 °F 30.2 in Calm     59% 0 in CLR
06:45 34.2 °F 21.4 °F 30.2 in Calm     59% 0 in CLR
06:50 34.2 °F 21.4 °F 30.2 in Calm     59% 0 in CLR
06:55 34 °F 21 °F 30.2 in Calm     59% 0 in CLR
06:56 34 °F 21 °F 30.2 in Calm     59% 0 in CLR
06:58 34 °F 21 °F 30.2 in Calm     59% 0 in CLR
07:01 34 °F 21 °F 30.2 in Calm     59% 0 in CLR
07:03 34 °F 21 °F 30.2 in Calm     59% 0 in CLR
07:06 34 °F 21 °F 30.2 in Calm     59% 0 in CLR
07:11 34 °F 21.6 °F 30.2 in Calm     60% 0 in CLR
07:13 34 °F 21.6 °F 30.2 in Calm     60% 0 in CLR
07:14 33.8 °F 21.4 °F 30.2 in Calm     60% 0 in CLR
07:19 33.8 °F 21.4 °F 30.2 in Calm     60% 0 in CLR
07:20 33.8 °F 21.4 °F 30.2 in Calm     60% 0 in CLR
07:25 33.8 °F 21.4 °F 30.2 in Calm     60% 0 in CLR
07:27 33.6 °F 21.6 °F 30.3 in Calm     61% 0 in CLR
07:32 33.8 °F 21.4 °F 30.3 in Calm     60% 0 in CLR
07:34 33.6 °F 21.6 °F 30.3 in Calm     61% 0 in CLR
07:36 33.6 °F 21.6 °F 30.3 in Calm     61% 0 in CLR
07:39 33.8 °F 21.4 °F 30.2 in Calm     60% 0 in CLR
07:41 33.8 °F 21.4 °F 30.3 in Calm     60% 0 in CLR
07:46 34 °F 21.6 °F 30.2 in Calm     60% 0 in CLR
07:48 34.2 °F 21.7 °F 30.2 in Calm     60% 0 in CLR
07:51 34.2 °F 21.7 °F 30.3 in Calm     60% 0 in CLR
07:56 34.2 °F 21.7 °F 30.3 in Calm     60% 0 in CLR
07:57 34.2 °F 21.7 °F 30.3 in Calm     60% 0 in CLR
08:02 34.2 °F 21.7 °F 30.3 in Calm     60% 0 in CLR
08:04 34.3 °F 21.9 °F 30.3 in Calm     60% 0 in CLR
08:07 34.3 °F 21.9 °F 30.3 in Calm     60% 0 in CLR
08:12 34.7 °F 22.3 °F 30.3 in Calm     60% 0 in CLR
08:17 35.1 °F 22.6 °F 30.3 in Calm     60% 0 in CLR
08:21 35.2 °F 22.6 °F 30.2 in Calm     60% 0 in CLR
08:26 35.2 °F 22.6 °F 30.3 in Calm     60% 0 in CLR
08:27 35.2 °F 22.6 °F 30.3 in Calm     60% 0 in CLR
08:29 35.4 °F 22.8 °F 30.2 in Calm     60% 0 in CLR
08:34 36 °F 22.6 °F 30.2 in Calm     58% 0 in CLR
08:39 36.1 °F 23.2 °F 30.2 in Calm     59% 0 in CLR
08:44 36.5 °F 23.5 °F 30.2 in Calm     59% 0 in CLR
08:45 36.7 °F 23.4 °F 30.2 in Calm     58% 0 in CLR
08:46 36.9 °F 23.4 °F 30.2 in Calm     58% 0 in CLR
08:51 37.4 °F 25.5 °F 30.2 in Calm     62% 0 in CLR
08:52 37.6 °F 25.7 °F 30.2 in Calm     62% 0 in CLR
08:57 38.3 °F 25.5 °F 30.2 in Calm     60% 0 in CLR
09:02 38.5 °F 25.9 °F 30.2 in Calm     60% 0 in CLR
09:05 38.5 °F 25.9 °F 30.2 in Calm     60% 0 in CLR
09:07 38.5 °F 25.9 °F 30.2 in Calm     60% 0 in CLR
09:08 39.6 °F 25.5 °F 30.2 in Calm     57% 0 in CLR
09:13 39.9 °F 25.5 °F 30.2 in Calm     56% 0 in CLR
09:18 40.1 °F 25.2 °F 30.2 in Calm     55% 0 in CLR
09:19 40.1 °F 25.2 °F 30.2 in Calm     55% 0 in CLR
09:22 40.1 °F 25.2 °F 30.2 in Calm     55% 0 in CLR
09:25 40.3 °F 25.3 °F 30.2 in Calm     55% 0 in CLR
09:29 40.5 °F 25.5 °F 30.2 in Calm     55% 0 in CLR
09:31 40.5 °F 25.5 °F 30.2 in Calm     55% 0 in CLR
09:34 40.6 °F 25.7 °F 30.2 in Calm     55% 0 in CLR
09:36 40.6 °F 25.7 °F 30.2 in Calm     55% 0 in CLR
09:41 41 °F 25.5 °F 30.2 in Calm     54% 0 in CLR
09:45 41 °F 25.5 °F 30.3 in Calm     54% 0 in CLR
09:47 41 °F 25.2 °F 30.3 in Calm     53% 0 in CLR
09:52 41 °F 25.2 °F 30.3 in Calm     53% 0 in CLR
09:54 41 °F 25.2 °F 30.3 in Calm     53% 0 in CLR
09:58 41 °F 25.2 °F 30.3 in Calm     53% 0 in CLR
09:59 41 °F 25.2 °F 30.3 in Calm     53% 0 in CLR
10:04 41 °F 25.5 °F 30.3 in Calm     54% 0 in CLR
10:06 41 °F 25.5 °F 30.3 in Calm     54% 0 in CLR
10:10 40.8 °F 26.2 °F 30.3 in Calm     56% 0 in CLR
10:15 40.8 °F 26.2 °F 30.3 in Calm     56% 0 in CLR
10:18 40.6 °F 26.2 °F 30.3 in Calm     56% 0 in CLR
10:22 40.6 °F 26.6 °F 30.3 in Calm     57% 0 in CLR
10:24 40.6 °F 26.6 °F 30.3 in Calm     57% 0 in CLR
10:27 40.5 °F 26.4 °F 30.3 in Calm     57% 0 in CLR
10:29 40.5 °F 26.4 °F 30.3 in Calm     57% 0 in CLR
10:34 40.6 °F 26.6 °F 30.3 in Calm     57% 0 in CLR
10:36 40.6 °F 26.6 °F 30.3 in Calm     57% 0 in CLR
10:38 40.6 °F 26.6 °F 30.3 in Calm     57% 0 in CLR
10:41 40.6 °F 26.2 °F 30.3 in Calm     56% 0 in CLR
10:46 40.8 °F 26.2 °F 30.3 in Calm     56% 0 in CLR
10:47 40.8 °F 26.2 °F 30.3 in Calm     56% 0 in CLR
10:50 41 °F 26.1 °F 30.3 in Calm     55% 0 in CLR
10:54 41 °F 26.1 °F 30.3 in Calm     55% 0 in CLR
10:59 41.4 °F 25.9 °F 30.3 in Calm     54% 0 in CLR
11:04 41.4 °F 25.9 °F 30.3 in Calm     54% 0 in CLR
11:09 41.7 °F 25.9 °F 30.3 in Calm     53% 0 in CLR
11:10 41.7 °F 25.9 °F 30.3 in Calm     53% 0 in CLR
11:11 41.7 °F 25.9 °F 30.2 in Calm     53% 0 in CLR
11:16 41.9 °F 26.1 °F 30.3 in Calm     53% 0 in CLR
11:19 42.1 °F 26.6 °F 30.2 in Calm     54% 0 in CLR
11:24 42.4 °F 26.4 °F 30.2 in Calm     53% 0 in CLR
11:26 42.4 °F 26.4 °F 30.2 in Calm     53% 0 in CLR
11:31 42.6 °F 26.8 °F 30.2 in Calm     53% 0 in CLR
11:32 42.6 °F 26.8 °F 30.2 in Calm     53% 0 in CLR
11:34 42.8 °F 26.4 °F 30.2 in Calm     52% 0 in CLR
11:37 43 °F 26.4 °F 30.2 in Calm     52% 0 in CLR
11:42 43 °F 26.1 °F 30.2 in SE 3.5 mph 3.5 mph 51% 0 in CLR
11:45 42.8 °F 25.9 °F 30.2 in SE 3.5 mph 3.5 mph 51% 0 in CLR
11:47 42.8 °F 25.9 °F 30.2 in SE 3.5 mph 3.5 mph 51% 0 in CLR
11:50 42.8 °F 25.9 °F 30.2 in SE 3.5 mph 3.5 mph 51% 0 in CLR
11:55 43 °F 26.1 °F 30.2 in SE 3.5 mph 3.5 mph 51% 0 in CLR
11:56 43 °F 26.1 °F 30.2 in SE 3.5 mph 3.5 mph 51% 0 in CLR
11:57 43 °F 26.1 °F 30.2 in SE 3.5 mph 3.5 mph 51% 0 in CLR
12:02 43 °F 26.1 °F 30.2 in Calm   3.5 mph 51% 0 in BKN
12:03 43 °F 26.1 °F 30.2 in Calm     51% 0 in BKN
12:07 43.2 °F 26.2 °F 30.2 in Calm     51% 0 in BKN
12:10 43.2 °F 26.2 °F 30.2 in Calm     51% 0 in BKN
12:13 43.2 °F 26.2 °F 30.2 in Calm     51% 0 in BKN
12:16 43.3 °F 26.4 °F 30.2 in Calm     51% 0 in BKN
12:21 43.2 °F 26.2 °F 30.2 in Calm     51% 0 in OVC
12:22 43.3 °F 26.4 °F 30.2 in Calm     51% 0 in OVC
12:27 43.3 °F 27 °F 30.2 in Calm     52% 0 in OVC
12:32 43.3 °F 27 °F 30.2 in Calm     52% 0 in OVC
12:33 43.3 °F 27 °F 30.2 in Calm     52% 0 in OVC
12:37 43.3 °F 27 °F 30.2 in Calm     52% 0 in OVC
12:38 43.3 °F 27 °F 30.2 in Calm     52% 0 in OVC
12:43 43.3 °F 27 °F 30.2 in Calm     52% 0 in BKN
12:48 43.2 °F 26.2 °F 30.2 in Calm     51% 0 in BKN
12:49 43.2 °F 26.8 °F 30.2 in Calm     52% 0 in BKN
12:54 43.3 °F 27 °F 30.2 in Calm     52% 0 in BKN
12:57 43.2 °F 26.8 °F 30.2 in Calm     52% 0 in BKN
13:02 43.2 °F 26.8 °F 30.2 in Calm     52% 0 in SCT
13:04 43.2 °F 26.8 °F 30.2 in Calm     52% 0 in SCT
13:05 43.2 °F 26.8 °F 30.2 in Calm     52% 0 in SCT
13:10 43.2 °F 26.8 °F 30.2 in Calm     52% 0 in SCT
13:14 43 °F 26.4 °F 30.2 in Calm     52% 0 in SCT
13:16 43 °F 26.4 °F 30.2 in Calm     52% 0 in SCT
13:21 43.2 °F 26.8 °F 30.2 in Calm     52% 0 in BKN
13:26 43.3 °F 27 °F 30.2 in Calm     52% 0 in BKN
13:28 43.3 °F 26.4 °F 30.2 in Calm     51% 0 in BKN
13:30 43.5 °F 26.6 °F 30.2 in Calm     51% 0 in BKN
13:33 43.5 °F 26.6 °F 30.2 in Calm     51% 0 in BKN
13:36 43.5 °F 26.6 °F 30.2 in Calm     51% 0 in BKN
13:39 43.7 °F 26.8 °F 30.2 in Calm     51% 0 in BKN
13:44 43.7 °F 26.2 °F 30.2 in Calm     50% 0 in OVC
13:45 43.9 °F 26.4 °F 30.2 in Calm     50% 0 in OVC
13:50 44.1 °F 26.6 °F 30.2 in Calm     50% 0 in OVC
13:51 44.1 °F 26.6 °F 30.2 in Calm     50% 0 in OVC
13:56 44.1 °F 27.1 °F 30.2 in Calm     51% 0 in OVC
13:58 44.1 °F 27.1 °F 30.2 in Calm     51% 0 in OVC
14:03 44.1 °F 26.6 °F 30.2 in SSW 3.5 mph 3.5 mph 50% 0 in OVC
14:04 44.1 °F 26.6 °F 30.2 in SSW 3.5 mph 3.5 mph 50% 0 in OVC
14:09 44.1 °F 27.1 °F 30.2 in SSW 3.5 mph 3.5 mph 51% 0 in OVC
14:10 44.1 °F 27.1 °F 30.2 in SSW 3.5 mph 3.5 mph 51% 0 in OVC
14:15 44.1 °F 27.1 °F 30.2 in SSW 3.5 mph 3.5 mph 51% 0 in OVC
14:19 44.2 °F 27.1 °F 30.2 in SSW 3.5 mph 3.5 mph 51% 0 in OVC
14:21 44.2 °F 26.8 °F 30.2 in SSW 5.8 mph 5.8 mph 50% 0 in OVC
14:25 44.2 °F 27.1 °F 30.2 in SSW 5.8 mph 5.8 mph 51% 0 in OVC
14:26 44.2 °F 27.1 °F 30.2 in SSW 5.8 mph 5.8 mph 51% 0 in OVC
14:27 44.2 °F 27.1 °F 30.2 in SSW 5.8 mph 5.8 mph 51% 0 in OVC
14:32 44.4 °F 27.3 °F 30.2 in SSW 5.8 mph 5.8 mph 51% 0 in OVC
14:34 44.4 °F 27.3 °F 30.2 in SSW 5.8 mph 5.8 mph 51% 0 in OVC
14:38 44.4 °F 27.3 °F 30.2 in SSW 5.8 mph 5.8 mph 51% 0 in OVC
14:39 44.6 °F 27.1 °F 30.2 in SSW 5.8 mph 5.8 mph 50% 0 in OVC
14:44 44.6 °F 27.1 °F 30.1 in South 6.9 mph 6.9 mph 50% 0 in OVC
14:45 44.6 °F 27.1 °F 30.1 in South 6.9 mph 6.9 mph 50% 0 in OVC
14:50 44.4 °F 27 °F 30.1 in South 6.9 mph 6.9 mph 50% 0 in OVC
14:54 44.4 °F 27 °F 30.1 in South 6.9 mph 6.9 mph 50% 0 in OVC
14:57 44.4 °F 27 °F 30.1 in South 6.9 mph 6.9 mph 50% 0 in OVC
14:59 44.4 °F 27 °F 30.1 in South 6.9 mph 6.9 mph 50% 0 in OVC
15:04 44.4 °F 27 °F 30.1 in South 3.5 mph 3.5 mph 50% 0 in OVC
15:05 44.4 °F 27 °F 30.1 in South 3.5 mph 3.5 mph 50% 0 in OVC
15:10 44.2 °F 26.8 °F 30.1 in South 3.5 mph 3.5 mph 50% 0 in OVC
15:12 44.4 °F 27 °F 30.1 in South 3.5 mph 3.5 mph 50% 0 in OVC
15:16 44.4 °F 27 °F 30.1 in South 3.5 mph 3.5 mph 50% 0 in OVC
15:17 44.4 °F 27 °F 30.1 in South 3.5 mph 3.5 mph 50% 0 in OVC
15:22 44.4 °F 27 °F 30.1 in SSW 5.8 mph 5.8 mph 50% 0 in OVC
15:23 44.4 °F 27 °F 30.1 in SSW 5.8 mph 5.8 mph 50% 0 in OVC
15:24 44.4 °F 27 °F 30.1 in SSW 5.8 mph 5.8 mph 50% 0 in OVC
15:29 44.4 °F 27 °F 30.1 in SSW 5.8 mph 5.8 mph 50% 0 in OVC
15:34 44.2 °F 26.8 °F 30.1 in SSW 5.8 mph 5.8 mph 50% 0 in OVC
15:37 44.2 °F 26.8 °F 30.1 in SSW 5.8 mph 5.8 mph 50% 0 in OVC
15:40 44.1 °F 27.1 °F 30.1 in SSW 5.8 mph 5.8 mph 51% 0 in OVC
15:42 44.1 °F 27.1 °F 30.1 in SW 3.5 mph 5.8 mph 51% 0 in OVC
15:45 44.1 °F 27.1 °F 30.1 in SW 3.5 mph 3.5 mph 51% 0 in OVC
15:48 44.1 °F 27.1 °F 30.1 in SW 3.5 mph 3.5 mph 51% 0 in OVC
15:51 43.9 °F 27 °F 30.1 in SW 3.5 mph 3.5 mph 51% 0 in OVC
15:53 43.9 °F 27 °F 30.2 in SW 3.5 mph 3.5 mph 51% 0 in OVC
15:58 43.9 °F 27 °F 30.2 in SW 3.5 mph 3.5 mph 51% 0 in OVC
16:01 43.7 °F 27.1 °F 30.2 in SW 4.6 mph 4.6 mph 52% 0 in OVC
16:06 43.7 °F 27.1 °F 30.2 in SW 4.6 mph 4.6 mph 52% 0 in OVC
16:07 43.7 °F 27.1 °F 30.2 in SW 4.6 mph 4.6 mph 52% 0 in OVC
16:08 43.7 °F 27.1 °F 30.2 in SW 4.6 mph 4.6 mph 52% 0 in OVC
16:13 43.7 °F 27.7 °F 30.2 in SW 4.6 mph 4.6 mph 53% 0 in OVC
16:14 43.7 °F 27.7 °F 30.2 in SW 4.6 mph 4.6 mph 53% 0 in OVC
16:19 43.5 °F 28.4 °F 30.2 in SW 4.6 mph 4.6 mph 55% 0 in OVC
16:20 43.5 °F 28.4 °F 30.2 in SW 4.6 mph 4.6 mph 55% 0 in OVC
16:25 43.3 °F 29.5 °F 30.2 in SW 5.8 mph 5.8 mph 58% 0 in OVC
16:26 43.2 °F 29.5 °F 30.2 in SW 5.8 mph 5.8 mph 58% 0 in OVC
16:30 43 °F 30 °F 30.2 in SW 5.8 mph 5.8 mph 60% 0 in OVC
16:35 42.8 °F 30.4 °F 30.2 in SW 5.8 mph 5.8 mph 61% 0 in OVC
16:36 42.8 °F 30.4 °F 30.2 in SW 5.8 mph 5.8 mph 61% 0 in OVC
16:41 42.6 °F 30.9 °F 30.2 in SW 5.8 mph 5.8 mph 63% 0 in OVC
16:44 42.6 °F 31.3 °F 30.2 in SW 4.6 mph 4.6 mph 64% 0 in OVC
16:47 42.4 °F 31.5 °F 30.2 in SW 4.6 mph 4.6 mph 65% 0 in OVC
16:51 42.3 °F 31.6 °F 30.2 in SW 4.6 mph 4.6 mph 66% 0 in OVC
16:53 42.3 °F 31.6 °F 30.2 in SW 4.6 mph 4.6 mph 66% 0 in OVC
16:58 42.1 °F 31.8 °F 30.2 in SW 4.6 mph 4.6 mph 67% 0 in OVC
16:59 41.9 °F 31.6 °F 30.2 in SW 4.6 mph 4.6 mph 67% 0 in OVC
17:01 41.9 °F 32.2 °F 30.2 in SW 3.5 mph 4.6 mph 68% 0 in OVC
17:04 41.9 °F 32.2 °F 30.2 in SW 3.5 mph 3.5 mph 68% 0 in OVC
17:09 41.9 °F 32.2 °F 30.2 in SW 3.5 mph 3.5 mph 68% 0 in OVC
17:11 41.7 °F 32.7 °F 30.2 in SW 3.5 mph 3.5 mph 70% 0 in OVC
17:16 41.5 °F 32.5 °F 30.2 in SW 3.5 mph 3.5 mph 70% 0 in OVC
17:17 41.5 °F 32.5 °F 30.2 in SW 3.5 mph 3.5 mph 70% 0 in OVC
17:18 41.5 °F 32.5 °F 30.2 in SW 3.5 mph 3.5 mph 70% 0 in OVC
17:23 41.5 °F 32.5 °F 30.2 in SSW 5.8 mph 5.8 mph 70% 0 in OVC
17:26 41.4 °F 32.4 °F 30.2 in SSW 5.8 mph 5.8 mph 70% 0 in OVC
17:29 41.5 °F 32.5 °F 30.2 in SSW 5.8 mph 5.8 mph 70% 0 in OVC
17:33 41.2 °F 32.2 °F 30.2 in SSW 5.8 mph 5.8 mph 70% 0 in OVC
17:34 41.2 °F 32.2 °F 30.2 in SSW 5.8 mph 5.8 mph 70% 0 in OVC
17:37 41.2 °F 32.5 °F 30.2 in SSW 5.8 mph 5.8 mph 71% 0 in OVC
17:41 41.2 °F 32.7 °F 30.2 in SSW 5.8 mph 5.8 mph 72% 0 in OVC
17:43 41.2 °F 32.7 °F 30.2 in SSW 5.8 mph 5.8 mph 72% 0 in OVC
17:48 41 °F 33.1 °F 30.2 in SSW 5.8 mph 5.8 mph 73% 0 in OVC
17:54 41 °F 33.1 °F 30.2 in SSW 5.8 mph 5.8 mph 73% 0 in OVC
17:57 41 °F 33.3 °F 30.2 in SSW 5.8 mph 5.8 mph 74% 0 in OVC
17:59 41 °F 33.3 °F 30.2 in SSW 5.8 mph 5.8 mph 74% 0 in OVC
18:04 41 °F 33.3 °F 30.2 in South 8.1 mph 8.1 mph 74% 0 in OVC
18:09 41 °F 33.3 °F 30.2 in South 8.1 mph 8.1 mph 74% 0 in OVC
18:11 41 °F 33.3 °F 30.2 in South 8.1 mph 8.1 mph 74% 0 in OVC
18:13 41 °F 33.3 °F 30.2 in South 8.1 mph 8.1 mph 74% 0 in OVC
18:16 41 °F 33.1 °F 30.2 in South 8.1 mph 8.1 mph 73% 0 in OVC
18:21 41 °F 33.1 °F 30.2 in SSW 9.2 mph 9.2 mph 73% 0 in -DZ
18:26 41.2 °F 32.7 °F 30.2 in SSW 9.2 mph 9.2 mph 72% 0 in -DZ
18:27 41.2 °F 32.7 °F 30.2 in SSW 9.2 mph 9.2 mph 72% 0 in -DZ
18:32 41.2 °F 32.5 °F 30.2 in SSW 9.2 mph 9.2 mph 71% 0 in -DZ
18:37 41.4 °F 32.7 °F 30.2 in SSW 9.2 mph 9.2 mph 71% 0 in -DZ
18:38 41.4 °F 32.7 °F 30.2 in SSW 9.2 mph 9.2 mph 71% 0 in -DZ
18:43 41.5 °F 32.5 °F 30.2 in SSW 8.1 mph 8.1 mph 70% 0 in OVC
18:46 41.5 °F 31.8 °F 30.2 in SSW 8.1 mph 8.1 mph 68% 0 in OVC
18:48 41.5 °F 31.5 °F 30.2 in SSW 8.1 mph 8.1 mph 67% 0 in OVC
18:53 41.5 °F 30.9 °F 30.2 in SSW 8.1 mph 8.1 mph 66% 0 in OVC
18:55 41.5 °F 30.9 °F 30.2 in SSW 8.1 mph 8.1 mph 66% 0 in OVC
18:59 41.5 °F 30.9 °F 30.2 in SSW 8.1 mph 8.1 mph 66% 0 in OVC
19:00 41.5 °F 30.9 °F 30.2 in SSW 8.1 mph 8.1 mph 66% 0 in OVC
19:05 41.4 °F 30.7 °F 30.2 in SSW 4.6 mph 4.6 mph 66% 0 in OVC
19:06 41.4 °F 30.7 °F 30.2 in SSW 4.6 mph 4.6 mph 66% 0 in OVC
19:11 41.4 °F 31.3 °F 30.2 in SSW 4.6 mph 4.6 mph 67% 0.01 in RA
19:12 41.2 °F 30.9 °F 30.2 in SSW 4.6 mph 4.6 mph 67% 0.01 in RA
19:13 41.2 °F 30.9 °F 30.2 in SSW 4.6 mph 4.6 mph 67% 0.01 in RA
19:17 41.2 °F 31.5 °F 30.2 in SSW 4.6 mph 4.6 mph 68% 0.01 in RA
19:19 41.2 °F 31.8 °F 30.2 in SSW 4.6 mph 4.6 mph 69% 0.01 in RA
19:23 41 °F 32 °F 30.2 in South 3.5 mph 3.5 mph 70% 0.01 in OVC
19:25 41 °F 32 °F 30.2 in South 3.5 mph 3.5 mph 70% 0.01 in OVC
19:28 41 °F 32 °F 30.2 in South 3.5 mph 3.5 mph 70% 0.01 in OVC
19:32 40.8 °F 32.2 °F 30.2 in South 3.5 mph 3.5 mph 71% 0.01 in OVC
19:34 40.6 °F 32 °F 30.1 in South 3.5 mph 3.5 mph 71% 0.01 in OVC
19:39 40.6 °F 32 °F 30.1 in South 3.5 mph 3.5 mph 71% 0.01 in OVC
19:40 40.6 °F 32 °F 30.1 in South 3.5 mph 3.5 mph 71% 0.01 in OVC
19:45 40.6 °F 32.4 °F 30.1 in SSW 3.5 mph 3.5 mph 72% 0.01 in OVC
19:46 40.6 °F 32.4 °F 30.1 in SSW 3.5 mph 3.5 mph 72% 0.01 in OVC
19:47 40.6 °F 32.4 °F 30.1 in SSW 3.5 mph 3.5 mph 72% 0.01 in OVC
19:52 41 °F 32.4 °F 30.1 in SSW 3.5 mph 3.5 mph 71% 0.01 in OVC
19:53 41 °F 32.4 °F 30.1 in SSW 3.5 mph 3.5 mph 71% 0.01 in OVC
19:58 41.2 °F 32.5 °F 30.1 in SSW 3.5 mph 3.5 mph 71% 0.01 in OVC
20:03 41.2 °F 32.2 °F 30.1 in South 5.8 mph 5.8 mph 70% 0.01 in OVC
20:04 41.2 °F 32.2 °F 30.1 in South 5.8 mph 5.8 mph 70% 0.01 in OVC
20:09 41.2 °F 32.2 °F 30.1 in South 5.8 mph 5.8 mph 70% 0.01 in OVC
20:11 41.2 °F 32.2 °F 30.1 in South 5.8 mph 5.8 mph 70% 0 in OVC
20:15 41.4 °F 32.4 °F 30.1 in South 5.8 mph 5.8 mph 70% 0 in OVC
20:17 41.4 °F 32.4 °F 30.1 in South 5.8 mph 5.8 mph 70% 0 in OVC
20:21 41.4 °F 32.4 °F 30.1 in South 4.6 mph 5.8 mph 70% 0 in OVC
20:24 41.4 °F 32.4 °F 30.1 in South 4.6 mph 4.6 mph 70% 0 in OVC
20:26 41.4 °F 32.4 °F 30.1 in South 4.6 mph 4.6 mph 70% 0 in OVC
20:30 41.2 °F 32.2 °F 30.1 in South 4.6 mph 4.6 mph 70% 0 in OVC
20:31 41.2 °F 32.2 °F 30.1 in South 4.6 mph 4.6 mph 70% 0 in OVC
20:36 41.2 °F 32.5 °F 30.1 in South 4.6 mph 4.6 mph 71% 0 in OVC
20:38 41 °F 32.4 °F 30.1 in South 4.6 mph 4.6 mph 71% 0 in OVC
20:43 40.8 °F 32.5 °F 30.1 in SSW 4.6 mph 4.6 mph 72% 0 in OVC
20:46 40.8 °F 32.5 °F 30.1 in SSW 4.6 mph 4.6 mph 72% 0 in OVC
20:48 40.8 °F 32.5 °F 30.1 in SSW 4.6 mph 4.6 mph 72% 0 in OVC
20:52 40.8 °F 32.5 °F 30.1 in SSW 4.6 mph 4.6 mph 72% 0 in OVC
20:54 40.6 °F 32.4 °F 30.1 in SSW 4.6 mph 4.6 mph 72% 0 in OVC
20:56 40.6 °F 32.4 °F 30.1 in SSW 4.6 mph 4.6 mph 72% 0 in OVC
21:01 40.6 °F 32.4 °F 30.1 in SW 3.5 mph 4.6 mph 72% 0 in OVC
21:06 40.5 °F 32.2 °F 30.1 in SW 3.5 mph 3.5 mph 72% 0 in OVC
21:08 40.5 °F 32.2 °F 30.1 in SW 3.5 mph 3.5 mph 72% 0 in OVC
21:10 40.5 °F 32.5 °F 30.1 in SW 3.5 mph 3.5 mph 73% 0 in OVC
21:13 40.5 °F 32.5 °F 30.1 in SW 3.5 mph 3.5 mph 73% 0 in OVC
21:18 40.3 °F 32.4 °F 30.1 in SW 3.5 mph 3.5 mph 73% 0 in OVC
21:19 40.3 °F 32.4 °F 30.1 in SW 3.5 mph 3.5 mph 73% 0 in OVC
21:21 40.3 °F 32.4 °F 30.1 in SW 3.5 mph 3.5 mph 73% 0 in OVC
21:24 40.3 °F 32.4 °F 30.1 in SW 3.5 mph 3.5 mph 73% 0 in OVC
21:29 40.3 °F 32.4 °F 30.1 in SW 3.5 mph 3.5 mph 73% 0 in OVC
21:30 40.3 °F 32.4 °F 30.1 in SW 3.5 mph 3.5 mph 73% 0 in OVC
21:33 40.3 °F 32.4 °F 30.1 in Calm     73% 0 in OVC
21:38 40.3 °F 32.4 °F 30.1 in Calm     73% 0 in OVC
21:39 40.3 °F 32.4 °F 30.1 in Calm     73% 0 in OVC
21:44 40.3 °F 32.4 °F 30.1 in Calm     73% 0 in OVC
21:45 40.3 °F 32.4 °F 30.1 in Calm     73% 0 in OVC
21:46 40.3 °F 32.4 °F 30.1 in Calm     73% 0 in OVC
21:51 40.3 °F 32.4 °F 30.1 in Calm     73% 0 in OVC
21:55 40.3 °F 32.4 °F 30.1 in Calm     73% 0 in OVC
21:59 40.3 °F 32.4 °F 30.1 in Calm     73% 0 in OVC
22:04 40.3 °F 32.4 °F 30.1 in SSW 3.5 mph 3.5 mph 73% 0 in OVC
Harrisonburg, VA, USA
Compliments of Weather Underground - 2.75 mb